{"data":{"norad_id":27004,"epoch":"2026-09-19T22:40:41.219328Z","epoch_age_seconds":59383,"freshness":"FRESH","line1":"1 27004U 01056D   26262.94492152 -.00000025  00000+0  24372-4 0  9998","line2":"2 27004  99.8136  81.6266 0019054 260.1317 266.6445 13.70265683239164","mean_motion":13.70265683,"eccentricity":0.0019054,"inclination_deg":99.8136,"raan_deg":81.6266,"arg_perigee_deg":260.1317,"mean_anomaly_deg":266.6445,"bstar":2.4372e-5,"rev_number":23916,"period_min":105.08910920452,"perigee_km":984.56166456542,"apogee_km":1012.6729999748,"semimajor_km":7376.7543322701,"source":"CELESTRAK","updated_at":"2026-09-20T09:00:33.884297Z"}}